Location: Newark
(52.2090°N, 4.1550°W)
Time: 04:36:26
(UTC+00:00)

Explorer 7 - Pass Details

Date: 18 September 2019
Orbit: 485 x 680 km, 50.3° (Epoch: 22 October)

Event Time Altitude Azimuth Distance (km) Brightness Sun altitude
Exits shadow 01:47:10 17° 90° (E) 1,700 9.5 -32.1°
Drops below altitude 10° 01:48:16 10° 87° (E) 2,112 10.1 -32.0°
Sets 01:50:41 0° 84° (E) 3,036 11.0 -31.8°
